Charter Quote
Worldwide +1-877-727-2538 Call
Select Language Lang
SAFETY RELIABILITY EXPERIENCE

Neuburg Airport (ETSN) - Jet Charter Services

AIRPORT INFORMATION
ICAOETSN
LOCATIONNeuburg, Germany
FACILITY TYPEAIRPORT
Runway Length (ft) Width (ft) Surface Type Elevation (ft)
27/09 8005 98 ASP 1248.19672

At Paramount Business Jets you can hire chartered private jets to and from Neuburg Airport with as little as 4 hours of notice. All flights booked via Paramount Business Jets are operated by certified direct air carriers that meet and exceed the FAA part 135 and 121 protocol or a foreign equivalent safety authority. Furthermore, Paramount Business Jets subscribes to ARGUS for their third party safety checks of operators, aircraft, and crews prior each and every flight to and from Neuburg Airport and worldwide.

  • Quote a trip using Neuburg Airport or call us 24/7 - 365 days a year at +1-877-727-2538.
Questions? Call +1-877-727-2538

METAR Weather Data at Neuburg Airport, ETSN

STATIONETSN
OBSERVEDTue Mar 19, 21:20 UTC
NOWTue Mar 19, 21:43 UTC
AGE23 min ago
WINDW at 1 mph
VISIBILITY16 miles
TEMP30°F (-1°C)
DEWPT25°F (-4°C)
HUMIDITY80%
BAROMETER1030 hPa (30.42 in Hg)
METARETSN 192120Z 26001KT 9999 M01/M04 Q1030 BLU+

Call us on +1-877-727-2538 (24 Hours) to Hire a Private Jet or Get a Quick Quote.

Find Airports Near any Location

Processing
...